Weather History for Asheville, NC

Change the Weather History Date:

Tuesday, January 14, 2014

  Actual Average Record
Temperature  
Mean Temperature 41 °F 37 °F  
Max Temperature 53 °F 47 °F 76 °F (1932)
Min Temperature 29 °F 26 °F -4 °F (1893)
Degree Days  
Heating Degree Days 24 28  
Month to date heating degree days 436 392  
Since 1 July heating degree days 2016 2053  
Cooling Degree Days 0 0  
Month to date cooling degree days 0 0  
Year to date cooling degree days 0 0  
Moisture  
Dew Point 36 °F    
Average Humidity 66    
Maximum Humidity 96    
Minimum Humidity 35    
Precipitation  
Precipitation 0.12 in 0.12 in 3.88 in (1995)
Month to date precipitation 2.19 1.60  
Year to date precipitation 2.19 1.60  
Snow  
Snow 0.00 in 0.20 in 4.40 in (1982)
Month to date snowfall 0.2 1.8  
Since 1 July snowfall 0.4 2.8  
Snow Depth 0.00 in    
Sea Level Pressure  
Sea Level Pressure 29.85 in    
Wind  
Wind Speed 6 mph (North)    
Max Wind Speed 22 mph    
Max Gust Speed 26 mph    
Visibility 9 miles    
Events Rain    
T = Trace of Precipitation, MM = Missing Value Source: NWS Daily Summary

Daily Weather History Graph

Daily Weather History Graph

Search for Another Location

Airport:

Trip Planner

Search our weather history database for the weather conditions in past years. The results will help you decide how hot, cold, wet, or windy it might be!

Date:

Astronomy

Jan. 14, 2014 Rise Set
Actual Time 7:38 AM EST 5:39 PM EST
Civil Twilight 7:11 AM EST 6:07 PM EST
Nautical Twilight 6:39 AM EST 6:38 PM EST
Astronomical Twilight 6:09 AM EST 7:09 PM EST
Moon 4:43 PM EST (1/14) 6:13 AM EST (1/14)
Length of Visible Light 10h 56m
Length of Day
10h 00m
Waxing Gibbous, 98% of the Moon is Illuminated
Jan 14
Waxing Gibbous
Jan 15
Full
Jan 24
Last Quarter
Jan 30
New
Feb 6
First Quarter

Hourly Weather History & Observations

Time (EST) Temp. Windchill Dew Point Humidity Pressure Visibility Wind Dir Wind Speed Gust Speed Precip Events Conditions
12:54 AM 43.0 °F 38.2 °F 39.9 °F 89% 29.85 in 10.0 mi SSE 8.1 mph - 0.00 in   Overcast
1:28 AM 42.8 °F 41.1 °F 39.2 °F 87% 29.85 in 10.0 mi SSE 3.5 mph - 0.00 in   Overcast
1:40 AM 42.8 °F 41.1 °F 39.2 °F 87% 29.85 in 10.0 mi SSE 3.5 mph - 0.00 in   Overcast
1:54 AM 43.0 °F - 39.9 °F 89% 29.83 in 10.0 mi Calm Calm - 0.00 in   Overcast
2:44 AM 42.8 °F 41.1 °F 39.2 °F 87% 29.82 in 10.0 mi ESE 3.5 mph - N/A   Overcast
2:54 AM 43.0 °F - 41.0 °F 93% 29.80 in 10.0 mi Calm Calm - N/A   Overcast
3:42 AM 42.8 °F - 41.0 °F 93% 29.80 in 10.0 mi Calm Calm - N/A   Mostly Cloudy
3:54 AM 43.0 °F 40.3 °F 41.0 °F 93% 29.78 in 10.0 mi SW 4.6 mph - N/A   Overcast
4:54 AM 42.1 °F 40.2 °F 39.9 °F 92% 29.78 in 10.0 mi North 3.5 mph - N/A   Overcast
5:54 AM 42.1 °F - 41.0 °F 96% 29.78 in 8.0 mi Calm Calm - 0.01 in Rain Light Rain
6:02 AM 42.8 °F - 39.2 °F 87% 29.79 in 7.0 mi Calm Calm - 0.00 in Rain Rain
6:19 AM 42.8 °F 39.3 °F 39.2 °F 87% 29.78 in 7.0 mi North 5.8 mph - 0.03 in Rain Rain
6:29 AM 42.8 °F 39.3 °F 39.2 °F 87% 29.78 in 10.0 mi North 5.8 mph - 0.04 in Rain Light Rain
6:54 AM 41.0 °F 36.4 °F 39.9 °F 96% 29.78 in 10.0 mi NNW 6.9 mph - 0.04 in   Overcast
7:12 AM 41.0 °F 36.4 °F 39.2 °F 93% 29.79 in 10.0 mi North 6.9 mph - 0.00 in   Overcast
7:34 AM 42.8 °F 37.5 °F 39.2 °F 87% 29.80 in 10.0 mi North 9.2 mph - 0.00 in Rain Light Rain
7:54 AM 42.1 °F 36.6 °F 39.9 °F 92% 29.81 in 10.0 mi North 9.2 mph - 0.00 in Rain Light Rain
8:33 AM 42.8 °F 36.6 °F 41.0 °F 93% 29.85 in 2.5 mi NNW 11.5 mph 17.3 mph 0.06 in Rain Heavy Rain
8:40 AM 42.8 °F 36.2 °F 41.0 °F 93% 29.86 in 7.0 mi NNW 12.7 mph - 0.07 in Rain Light Rain
8:50 AM 42.8 °F 36.6 °F 41.0 °F 93% 29.85 in 4.0 mi North 11.5 mph 19.6 mph 0.07 in Rain Light Rain
8:54 AM 43.0 °F 36.4 °F 41.0 °F 93% 29.85 in 4.0 mi North 12.7 mph 20.7 mph 0.07 in Rain Light Rain
9:19 AM 42.8 °F 36.2 °F 39.2 °F 87% 29.84 in 7.0 mi North 12.7 mph 18.4 mph 0.00 in   Mostly Cloudy
9:54 AM 43.0 °F 36.8 °F 39.0 °F 86% 29.86 in 7.0 mi NNW 11.5 mph - 0.00 in   Mostly Cloudy
10:54 AM 46.9 °F - 39.0 °F 74% 29.86 in 10.0 mi North 17.3 mph 26.5 mph N/A   Partly Cloudy
11:54 AM 50.0 °F - 35.1 °F 57% 29.86 in 10.0 mi NNW 17.3 mph 26.5 mph N/A   Clear
12:54 PM 51.1 °F - 32.0 °F 48% 29.84 in 10.0 mi North 10.4 mph - N/A   Partly Cloudy
1:54 PM 53.1 °F - 27.0 °F 37% 29.84 in 10.0 mi North 11.5 mph 19.6 mph N/A   Clear
2:54 PM 52.0 °F - 26.1 °F 37% 29.85 in 10.0 mi NNW 11.5 mph - N/A   Clear
3:54 PM 52.0 °F - 26.1 °F 37% 29.86 in 10.0 mi Variable 6.9 mph - N/A   Clear
4:54 PM 51.1 °F - 27.0 °F 39% 29.87 in 10.0 mi North 8.1 mph - N/A   Clear
5:54 PM 46.0 °F 43.9 °F 27.0 °F 47% 29.91 in 10.0 mi NNW 4.6 mph - N/A   Clear
6:54 PM 42.1 °F - 28.0 °F 58% 29.94 in 10.0 mi Calm Calm - N/A   Clear
7:54 PM 41.0 °F 39.0 °F 28.0 °F 60% 29.96 in 10.0 mi North 3.5 mph - N/A   Clear
8:54 PM 35.1 °F - 28.9 °F 78% 29.98 in 10.0 mi Calm Calm - N/A   Clear
9:54 PM 34.0 °F - 28.0 °F 79% 29.98 in 10.0 mi Calm Calm - N/A   Clear
10:54 PM 32.0 °F - 28.9 °F 88% 29.98 in 10.0 mi Calm Calm - N/A   Clear
11:54 PM 30.0 °F - 27.0 °F 88% 29.96 in 10.0 mi Calm Calm - N/A   Clear